This demonstration page uses our WeatherBlox Daily Observations layout. Learn more.

Left ArrowRight Arrow

39.92423, -83.80882

Hourly Observations for August 13, 2019

Temp ( °F °C ) Dew Point ( °F °C ) Humidity (%) Winds ( mph kmh ) Pressure ( in mb ) Visibility ( mi km ) Precip ( " mm )
12:56 am 00:56 Partly Cloudy 73 22.8 69 20.6 87 87 SSW 3 6 29.84 1011 10 16 N/A
1:56 am 01:56 Mostly Cloudy 72 22.2 69 20.6 91 91 SE 3 6 29.82 1010 10 16 N/A
2:44 am 02:44 Cloudy 73 23 70 21 89 89 S 3 6 29.79 1009 10 16 N/A
2:56 am 02:56 Cloudy 73 22.8 69 20.6 87 87 S 3 6 29.81 1010 10 16 N/A
3:28 am 03:28 Cloudy with Light Rain 72 22 70 21 94 94 N N/A 29.78 1009 10 16 0.00 0.00
3:37 am 03:37 Cloudy with Light Rain 72 22 72 22 100 100 S 5 7 29.78 1009 10 16 0.00 0.00
3:56 am 03:56 Cloudy 72 22.2 70 21.1 94 94 N N/A 29.79 1009 10 16 0.00 0.00
4:03 am 04:03 Cloudy with Thunderstorms 72 22 72 22 100 100 N N/A 29.78 1009 10 16 0.00 0.00
4:56 am 04:56 Cloudy with Nearby Thunderstorms 71 21.7 71 21.7 100 100 S 6 9 29.76 1008 6 10 0.48 12.19
5:09 am 05:09 Cloudy with Nearby Thunderstorms 72 22 72 22 100 100 SSW 7 11 29.74 1007 8 13 0.01 0.25
5:41 am 05:41 Partly Cloudy with Light Rain 72 22 72 22 100 100 SSW 3 6 29.75 1008 10 16 0.04 1.02
5:56 am 05:56 Clear 71 21.7 71 21.7 100 100 SSW 6 9 29.78 1008 10 16 0.04 1.02
6:56 am 06:56 Cloudy 71 21.7 71 21.7 100 100 N N/A 29.80 1009 10 16 N/A
7:06 am 07:06 Cloudy 72 22 72 22 100 100 SSW 3 6 29.78 1009 10 16 N/A
7:38 am 07:38 Cloudy 72 22 72 22 100 100 SSW 6 9 29.79 1009 10 16 N/A
7:49 am 07:49 Cloudy 72 22 72 22 100 100 S 5 7 29.78 1009 10 16 N/A
7:56 am 07:56 Cloudy 71 21.7 71 21.7 100 100 SSW 5 7 29.80 1009 10 16 N/A
8:08 am 08:08 Cloudy 72 22 72 22 100 100 SSW 6 9 29.78 1009 10 16 N/A
8:17 am 08:17 Mostly Cloudy 72 22 72 22 100 100 SSW 6 9 29.77 1008 10 16 N/A
8:56 am 08:56 Mostly Cloudy 73 22.8 73 22.8 100 100 SW 12 19 29.80 1009 10 16 N/A
9:38 am 09:38 Cloudy 73 23 73 23 100 100 SSW 10 17 29.78 1008 10 16 N/A
9:56 am 09:56 Cloudy 75 23.9 74 23.3 96 96 SSW 13 20 29.80 1009 10 16 N/A
10:32 am 10:32 Cloudy 75 24 75 24 100 100 SSW 10 17 29.79 1009 10 16 N/A
10:42 am 10:42 Cloudy 75 24 75 24 100 100 SW 8 13 29.80 1009 10 16 N/A
10:56 am 10:56 Cloudy 75 23.9 75 23.9 100 100 SW 9 15 29.82 1010 10 16 N/A
11:56 am 11:56 Cloudy 75 23.9 75 23.9 100 100 SSW 7 11 29.82 1010 10 16 0.00 0.00
12:26 pm 12:26 Cloudy 75 24 75 24 100 100 SW 8 13 29.79 1009 9 14 N/A
12:56 pm 12:56 Cloudy with Light Rain 74 23.3 74 23.3 100 100 SW 13 20 29.81 1009 7 11 0.00 0.00
1:56 pm 13:56 Cloudy 76 24.4 73 22.8 91 91 W 15 24 29.79 1009 10 16 0.00 0.00
2:56 pm 14:56 Cloudy 79 26.1 74 23.3 85 85 W 14 22 29.79 1009 10 16 N/A
3:24 pm 15:24 Cloudy 81 27 73 23 79 79 W 13 20 29.75 1007 10 16 N/A
3:56 pm 15:56 Partly Cloudy 82 27.8 74 23.3 77 77 WNW 10 17 29.77 1008 10 16 N/A
4:04 pm 16:04 Mostly Cloudy 82 28 73 23 74 74 W 9 15 29.73 1007 10 16 N/A
4:56 pm 16:56 Cloudy with Light Rain 81 27.2 74 23.3 79 79 NW 10 17 29.79 1009 10 16 0.00 0.00
5:14 pm 17:14 Partly Cloudy with Light Rain 81 27 75 24 84 84 W 8 13 29.76 1008 10 16 0.02 0.51
5:56 pm 17:56 Mostly Sunny 84 28.9 73 22.8 70 70 NW 9 15 29.78 1008 10 16 0.02 0.51
6:56 pm 18:56 Mostly Cloudy 83 28.3 72 22.2 70 70 NW 12 19 29.78 1009 10 16 N/A
7:56 pm 19:56 Mostly Sunny 78 25.6 72 22.2 82 82 NNW 8 13 29.81 1010 10 16 N/A
8:56 pm 20:56 Clear 75 23.9 70 21.1 84 84 NW 3 6 29.83 1010 10 16 N/A
9:56 pm 21:56 Clear 72 22.2 70 21.1 94 94 N 6 9 29.85 1011 10 16 N/A
10:56 pm 22:56 Clear 71 21.7 71 21.7 100 100 NNW 3 6 29.85 1011 9 14 N/A
11:56 pm 23:56 Clear 70 21.1 70 21.1 100 100 WNW 3 6 29.87 1012 8 13 N/A

Powered by AerisWeather